GEFSSGP_prec_meanprecacc_024.txt.gz
Total_Precipitation_Accumulation
0.00 0.01 0.02 0.05 0.07 0.06 0.06 0.01 0.00 0.00 0.00 0.00 0.00 0.00 0.00 0.00 0.01 0.03 0.00 0.00 0.00 0.00 0.00 0.00 0.00 0.00 0.00 0.00 0.00 0.00 0.00 0.00 0.00 0.00 0.00 0.00 0.00 0.00 0.00 0.00 0.00 0.00 0.00 0.00 0.00 0.00 0.00 0.00 0.00
0.00 0.00 0.01 0.02 0.06 0.21 0.21 0.03 0.00 0.00 0.00 0.00 0.00 0.00 0.00 0.00 0.00 0.00 0.00 0.00 0.00 0.00 0.00 0.00 0.00 0.00 0.00 0.00 0.00 0.00 0.00 0.00 0.00 0.00 0.00 0.00 0.00 0.00 0.00 0.00 0.00 0.00 0.00 0.00 0.00 0.00 0.00 0.00 0.00
0.00 0.00 0.00 0.01 0.04 0.18 0.19 0.02 0.00 0.00 0.00 0.00 0.00 0.00 0.00 0.00 0.00 0.00 0.00 0.00 0.00 0.00 0.00 0.00 0.00 0.00 0.00 0.00 0.00 0.00 0.00 0.00 0.00 0.00 0.00 0.00 0.00 0.00 0.00 0.00 0.00 0.00 0.00 0.00 0.00 0.00 0.00 0.00 0.00
0.00 0.00 0.00 0.00 0.02 0.06 0.05 0.03 0.02 0.01 0.00 0.00 0.00 0.00 0.00 0.00 0.00 0.00 0.00 0.00 0.00 0.00 0.00 0.00 0.00 0.00 0.00 0.00 0.00 0.00 0.00 0.00 0.00 0.00 0.00 0.00 0.01 0.01 0.00 0.00 0.00 0.00 0.00 0.00 0.00 0.00 0.00 0.00 0.00
0.00 0.00 0.00 0.00 0.02 0.04 0.05 0.05 0.03 0.02 0.01 0.00 0.00 0.00 0.00 0.00 0.00 0.00 0.00 0.00 0.00 0.00 0.00 0.00 0.00 0.00 0.00 0.00 0.00 0.00 0.00 0.00 0.00 0.00 0.00 0.00 0.01 0.01 0.01 0.00 0.00 0.00 0.00 0.00 0.00 0.00 0.00 0.00 0.00
0.00 0.00 0.00 0.00 0.02 0.04 0.05 0.04 0.03 0.03 0.01 0.00 0.00 0.00 0.00 0.00 0.00 0.00 0.00 0.00 0.00 0.00 0.00 0.00 0.00 0.00 0.00 0.00 0.00 0.00 0.00 0.00 0.00 0.00 0.00 0.00 0.00 0.00 0.00 0.00 0.00 0.01 0.02 0.01 0.00 0.00 0.00 0.00 0.00
0.00 0.00 0.00 0.00 0.01 0.02 0.02 0.02 0.03 0.02 0.01 0.00 0.00 0.00 0.02 0.01 0.00 0.00 0.00 0.00 0.00 0.00 0.00 0.00 0.00 0.00 0.00 0.01 0.01 0.00 0.00 0.00 0.00 0.00 0.00 0.00 0.00 0.00 0.00 0.00 0.00 0.01 0.02 0.03 0.02 0.01 0.00 0.00 0.01
0.00 0.00 0.00 0.00 0.00 0.01 0.01 0.01 0.01 0.01 0.01 0.00 0.00 0.00 0.01 0.00 0.00 0.00 0.00 0.00 0.00 0.00 0.00 0.00 0.00 0.00 0.00 0.00 0.01 0.01 0.01 0.01 0.01 0.00 0.00 0.00 0.00 0.01 0.01 0.01 0.02 0.01 0.01 0.02 0.03 0.03 0.03 0.04 0.06
0.00 0.00 0.00 0.00 0.00 0.00 0.00 0.00 0.00 0.00 0.00 0.00 0.00 0.00 0.01 0.00 0.00 0.00 0.00 0.00 0.00 0.00 0.00 0.00 0.00 0.00 0.00 0.00 0.00 0.01 0.01 0.01 0.01 0.01 0.01 0.01 0.01 0.04 0.05 0.09 0.13 0.09 0.05 0.05 0.05 0.07 0.09 0.10 0.06
0.00 0.00 0.00 0.00 0.00 0.00 0.00 0.00 0.00 0.00 0.00 0.00 0.00 0.00 0.01 0.00 0.00 0.00 0.00 0.00 0.00 0.00 0.00 0.00 0.00 0.00 0.00 0.00 0.00 0.00 0.00 0.01 0.01 0.02 0.05 0.05 0.06 0.07 0.04 0.11 0.14 0.10 0.08 0.06 0.08 0.21 0.19 0.10 0.05
0.00 0.00 0.00 0.00 0.00 0.00 0.00 0.00 0.00 0.00 0.00 0.00 0.00 0.00 0.02 0.01 0.00 0.00 0.00 0.00 0.00 0.00 0.00 0.00 0.00 0.01 0.00 0.00 0.00 0.00 0.01 0.02 0.03 0.03 0.04 0.08 0.08 0.06 0.03 0.03 0.05 0.08 0.10 0.11 0.17 0.26 0.13 0.11 0.14
0.00 0.00 0.00 0.00 0.00 0.00 0.00 0.00 0.00 0.00 0.00 0.00 0.00 0.00 0.01 0.01 0.00 0.00 0.00 0.00 0.00 0.00 0.00 0.00 0.00 0.01 0.01 0.01 0.01 0.01 0.02 0.03 0.05 0.09 0.08 0.13 0.10 0.07 0.04 0.04 0.03 0.05 0.09 0.17 0.19 0.18 0.17 0.18 0.15
0.00 0.00 0.00 0.00 0.00 0.00 0.00 0.00 0.00 0.00 0.00 0.00 0.00 0.00 0.00 0.00 0.00 0.00 0.00 0.00 0.00 0.00 0.00 0.00 0.00 0.00 0.01 0.02 0.02 0.01 0.01 0.02 0.03 0.08 0.10 0.13 0.13 0.11 0.11 0.09 0.07 0.07 0.14 0.22 0.26 0.29 0.28 0.23 0.20
0.00 0.00 0.00 0.00 0.00 0.00 0.00 0.00 0.00 0.00 0.00 0.00 0.00 0.00 0.00 0.00 0.00 0.01 0.00 0.01 0.00 0.00 0.00 0.01 0.01 0.02 0.02 0.03 0.03 0.04 0.05 0.06 0.08 0.13 0.21 0.30 0.32 0.31 0.34 0.27 0.23 0.19 0.20 0.24 0.33 0.36 0.40 0.32 0.29
0.00 0.00 0.00 0.00 0.00 0.00 0.00 0.00 0.00 0.00 0.00 0.00 0.00 0.00 0.00 0.00 0.01 0.01 0.01 0.01 0.00 0.01 0.01 0.03 0.04 0.07 0.09 0.10 0.11 0.12 0.16 0.21 0.30 0.41 0.48 0.61 0.69 0.68 0.67 0.52 0.34 0.31 0.43 0.50 0.46 0.40 0.46 0.28 0.25
0.00 0.00 0.00 0.00 0.00 0.00 0.00 0.00 0.00 0.00 0.00 0.00 0.00 0.01 0.01 0.01 0.02 0.03 0.03 0.02 0.02 0.03 0.05 0.09 0.12 0.16 0.21 0.27 0.31 0.35 0.38 0.43 0.50 0.56 0.54 0.59 0.72 0.75 0.75 0.51 0.28 0.37 0.63 0.72 0.66 0.59 0.57 0.43 0.41
0.00 0.00 0.00 0.00 0.00 0.00 0.00 0.00 0.00 0.00 0.00 0.00 0.01 0.01 0.02 0.02 0.03 0.03 0.04 0.04 0.04 0.04 0.10 0.20 0.28 0.33 0.39 0.49 0.58 0.60 0.57 0.54 0.52 0.49 0.41 0.39 0.43 0.47 0.52 0.32 0.26 0.45 0.61 0.65 0.64 0.61 0.68 0.58 0.56
0.00 0.00 0.00 0.00 0.00 0.00 0.00 0.00 0.01 0.02 0.02 0.02 0.02 0.03 0.03 0.03 0.03 0.03 0.04 0.04 0.04 0.07 0.16 0.30 0.37 0.40 0.37 0.34 0.37 0.38 0.39 0.37 0.35 0.29 0.23 0.20 0.20 0.24 0.36 0.30 0.27 0.44 0.54 0.51 0.68 0.74 0.79 0.65 0.59
0.00 0.00 0.00 0.00 0.00 0.00 0.00 0.00 0.02 0.03 0.04 0.04 0.03 0.04 0.04 0.03 0.03 0.03 0.02 0.02 0.03 0.06 0.11 0.15 0.17 0.15 0.11 0.11 0.12 0.14 0.17 0.22 0.24 0.23 0.19 0.15 0.14 0.19 0.33 0.32 0.32 0.39 0.43 0.41 0.56 0.67 0.67 0.50 0.68
0.00 0.00 0.00 0.00 0.00 0.00 0.00 0.00 0.00 0.01 0.01 0.02 0.02 0.03 0.04 0.04 0.03 0.02 0.01 0.01 0.01 0.01 0.02 0.03 0.03 0.03 0.02 0.02 0.04 0.05 0.07 0.10 0.11 0.12 0.13 0.11 0.14 0.18 0.24 0.25 0.26 0.30 0.34 0.34 0.38 0.47 0.51 0.43 0.68
0.00 0.00 0.00 0.00 0.00 0.00 0.00 0.00 0.00 0.00 0.01 0.01 0.03 0.04 0.05 0.04 0.04 0.02 0.02 0.02 0.01 0.01 0.01 0.01 0.01 0.02 0.01 0.01 0.01 0.02 0.03 0.04 0.05 0.05 0.06 0.07 0.11 0.15 0.16 0.17 0.21 0.26 0.28 0.31 0.35 0.47 0.57 0.48 0.53
0.00 0.00 0.00 0.00 0.00 0.00 0.00 0.00 0.00 0.00 0.02 0.03 0.04 0.05 0.05 0.04 0.03 0.03 0.02 0.02 0.02 0.01 0.01 0.01 0.01 0.02 0.02 0.02 0.02 0.03 0.04 0.03 0.03 0.04 0.05 0.06 0.08 0.08 0.09 0.12 0.23 0.30 0.35 0.39 0.39 0.43 0.50 0.51 0.46
0.00 0.00 0.00 0.00 0.00 0.00 0.00 0.00 0.00 0.02 0.04 0.08 0.10 0.08 0.06 0.04 0.04 0.04 0.04 0.03 0.02 0.01 0.01 0.01 0.01 0.03 0.03 0.04 0.05 0.04 0.02 0.02 0.02 0.03 0.05 0.05 0.05 0.05 0.05 0.06 0.11 0.22 0.31 0.35 0.36 0.37 0.42 0.46 0.45
0.00 0.00 0.00 0.00 0.00 0.00 0.01 0.02 0.02 0.03 0.05 0.07 0.09 0.09 0.08 0.09 0.11 0.11 0.08 0.05 0.03 0.01 0.01 0.01 0.02 0.03 0.03 0.04 0.05 0.05 0.04 0.04 0.03 0.04 0.06 0.07 0.06 0.05 0.04 0.05 0.08 0.13 0.15 0.19 0.25 0.28 0.31 0.33 0.36
0.00 0.00 0.00 0.00 0.00 0.01 0.01 0.02 0.02 0.02 0.03 0.04 0.05 0.06 0.09 0.11 0.12 0.13 0.11 0.07 0.05 0.04 0.03 0.02 0.02 0.03 0.04 0.04 0.05 0.05 0.05 0.06 0.05 0.06 0.08 0.08 0.08 0.08 0.08 0.09 0.13 0.18 0.19 0.18 0.21 0.25 0.28 0.32 0.33
0.00 0.00 0.00 0.00 0.00 0.00 0.00 0.01 0.02 0.02 0.03 0.02 0.02 0.03 0.05 0.06 0.08 0.09 0.08 0.06 0.05 0.04 0.03 0.03 0.02 0.02 0.02 0.02 0.04 0.04 0.05 0.06 0.07 0.11 0.14 0.12 0.09 0.09 0.13 0.17 0.18 0.18 0.20 0.24 0.30 0.34 0.36 0.36 0.36
0.00 0.00 0.00 0.00 0.00 0.00 0.00 0.00 0.01 0.01 0.01 0.01 0.01 0.01 0.03 0.03 0.04 0.04 0.04 0.04 0.03 0.02 0.02 0.01 0.01 0.02 0.01 0.01 0.02 0.03 0.04 0.07 0.11 0.14 0.14 0.10 0.08 0.07 0.07 0.12 0.20 0.21 0.22 0.27 0.35 0.38 0.39 0.41 0.44
0.00 0.00 0.00 0.00 0.00 0.00 0.00 0.00 0.00 0.01 0.00 0.00 0.00 0.01 0.01 0.02 0.02 0.02 0.02 0.02 0.02 0.01 0.01 0.01 0.01 0.01 0.01 0.00 0.00 0.02 0.06 0.12 0.18 0.21 0.16 0.10 0.08 0.06 0.06 0.09 0.14 0.17 0.19 0.25 0.37 0.44 0.47 0.52 0.55
0.00 0.00 0.00 0.00 0.00 0.00 0.00 0.00 0.00 0.01 0.01 0.00 0.00 0.00 0.00 0.01 0.01 0.01 0.01 0.01 0.01 0.01 0.01 0.01 0.01 0.01 0.01 0.01 0.01 0.06 0.15 0.18 0.24 0.36 0.33 0.16 0.09 0.06 0.06 0.06 0.06 0.06 0.08 0.13 0.27 0.47 0.55 0.61 0.60
0.00 0.00 0.00 0.00 0.00 0.00 0.01 0.00 0.00 0.00 0.00 0.00 0.00 0.00 0.00 0.00 0.00 0.00 0.00 0.00 0.00 0.01 0.01 0.01 0.01 0.01 0.01 0.01 0.01 0.04 0.14 0.19 0.22 0.28 0.29 0.20 0.13 0.08 0.05 0.04 0.03 0.03 0.05 0.11 0.24 0.40 0.52 0.62 0.68

GEFSSGP_prec_meanprecacc_030.txt.gz
Total_Precipitation_Accumulation
0.00 0.01 0.02 0.05 0.08 0.07 0.07 0.01 0.00 0.00 0.00 0.00 0.00 0.00 0.00 0.00 0.01 0.04 0.00 0.00 0.00 0.00 0.00 0.00 0.00 0.00 0.00 0.00 0.00 0.00 0.00 0.00 0.00 0.00 0.00 0.00 0.00 0.00 0.00 0.00 0.00 0.00 0.00 0.00 0.00 0.00 0.00 0.00 0.00
0.00 0.00 0.01 0.03 0.07 0.22 0.21 0.03 0.00 0.00 0.00 0.00 0.00 0.00 0.00 0.00 0.00 0.00 0.00 0.00 0.00 0.00 0.00 0.00 0.00 0.00 0.00 0.00 0.00 0.00 0.00 0.00 0.00 0.00 0.00 0.00 0.00 0.00 0.00 0.00 0.00 0.00 0.00 0.00 0.00 0.00 0.00 0.00 0.00
0.00 0.00 0.00 0.01 0.05 0.20 0.20 0.02 0.00 0.00 0.00 0.00 0.00 0.00 0.00 0.00 0.00 0.00 0.00 0.00 0.00 0.00 0.00 0.00 0.00 0.00 0.00 0.00 0.00 0.00 0.00 0.00 0.00 0.00 0.00 0.00 0.00 0.00 0.00 0.00 0.00 0.00 0.00 0.00 0.00 0.00 0.00 0.00 0.00
0.00 0.00 0.00 0.01 0.05 0.09 0.06 0.03 0.02 0.01 0.00 0.00 0.00 0.00 0.00 0.00 0.00 0.00 0.00 0.00 0.00 0.00 0.00 0.00 0.00 0.00 0.00 0.00 0.00 0.00 0.00 0.00 0.00 0.00 0.00 0.00 0.01 0.01 0.00 0.00 0.00 0.00 0.00 0.00 0.00 0.00 0.00 0.00 0.00
0.00 0.00 0.00 0.01 0.05 0.07 0.06 0.05 0.03 0.02 0.01 0.00 0.00 0.00 0.00 0.00 0.00 0.00 0.00 0.00 0.00 0.00 0.00 0.00 0.00 0.00 0.00 0.00 0.00 0.00 0.00 0.00 0.00 0.00 0.00 0.00 0.01 0.01 0.01 0.00 0.00 0.00 0.00 0.00 0.00 0.00 0.00 0.00 0.00
0.00 0.00 0.00 0.01 0.04 0.07 0.07 0.04 0.04 0.04 0.01 0.00 0.00 0.00 0.00 0.00 0.00 0.00 0.00 0.00 0.00 0.00 0.00 0.00 0.00 0.00 0.00 0.00 0.00 0.00 0.00 0.00 0.00 0.00 0.00 0.00 0.00 0.00 0.00 0.00 0.00 0.01 0.02 0.01 0.00 0.00 0.00 0.00 0.00
0.00 0.00 0.00 0.01 0.04 0.05 0.03 0.03 0.03 0.02 0.01 0.00 0.00 0.00 0.02 0.01 0.00 0.00 0.00 0.00 0.00 0.00 0.00 0.00 0.00 0.00 0.00 0.01 0.01 0.00 0.00 0.00 0.00 0.00 0.00 0.00 0.00 0.00 0.00 0.00 0.00 0.01 0.02 0.03 0.02 0.01 0.00 0.01 0.01
0.00 0.00 0.00 0.00 0.01 0.03 0.01 0.01 0.01 0.01 0.01 0.00 0.00 0.00 0.01 0.00 0.00 0.00 0.00 0.00 0.00 0.00 0.00 0.00 0.00 0.00 0.00 0.00 0.01 0.01 0.01 0.01 0.01 0.00 0.00 0.00 0.00 0.01 0.01 0.02 0.02 0.01 0.02 0.03 0.03 0.03 0.03 0.05 0.06
0.00 0.00 0.00 0.00 0.00 0.01 0.00 0.00 0.00 0.01 0.01 0.00 0.00 0.01 0.01 0.00 0.00 0.00 0.00 0.00 0.00 0.00 0.00 0.00 0.00 0.00 0.00 0.00 0.00 0.01 0.01 0.01 0.01 0.01 0.01 0.01 0.01 0.06 0.11 0.14 0.17 0.11 0.07 0.05 0.05 0.07 0.10 0.10 0.06
0.00 0.00 0.00 0.00 0.00 0.00 0.00 0.00 0.00 0.00 0.01 0.01 0.02 0.02 0.02 0.00 0.00 0.00 0.00 0.00 0.00 0.00 0.00 0.00 0.00 0.00 0.00 0.00 0.00 0.00 0.00 0.01 0.01 0.03 0.09 0.11 0.14 0.14 0.07 0.20 0.22 0.15 0.12 0.08 0.08 0.23 0.20 0.11 0.06
0.00 0.00 0.00 0.00 0.00 0.00 0.00 0.00 0.00 0.00 0.01 0.06 0.18 0.17 0.05 0.02 0.00 0.00 0.00 0.00 0.00 0.00 0.00 0.00 0.00 0.01 0.00 0.00 0.00 0.00 0.01 0.06 0.06 0.07 0.14 0.24 0.25 0.15 0.07 0.07 0.13 0.20 0.19 0.16 0.21 0.30 0.15 0.13 0.19
0.00 0.00 0.00 0.00 0.00 0.00 0.00 0.00 0.00 0.00 0.01 0.10 0.33 0.29 0.07 0.02 0.00 0.00 0.00 0.00 0.00 0.00 0.00 0.00 0.00 0.01 0.01 0.01 0.01 0.01 0.02 0.05 0.07 0.11 0.13 0.25 0.24 0.17 0.12 0.11 0.09 0.16 0.20 0.29 0.27 0.24 0.21 0.22 0.19
0.00 0.00 0.00 0.00 0.00 0.00 0.00 0.00 0.00 0.00 0.00 0.01 0.10 0.17 0.07 0.02 0.00 0.00 0.00 0.00 0.00 0.00 0.00 0.00 0.00 0.00 0.01 0.02 0.02 0.02 0.02 0.03 0.04 0.11 0.13 0.21 0.27 0.23 0.25 0.23 0.19 0.13 0.21 0.31 0.36 0.35 0.35 0.29 0.23
0.00 0.00 0.00 0.00 0.00 0.00 0.00 0.00 0.00 0.00 0.00 0.00 0.02 0.08 0.08 0.03 0.02 0.01 0.00 0.01 0.00 0.00 0.00 0.01 0.01 0.02 0.02 0.03 0.06 0.08 0.08 0.10 0.12 0.19 0.27 0.40 0.47 0.49 0.50 0.43 0.37 0.30 0.33 0.36 0.47 0.47 0.51 0.41 0.39
0.00 0.00 0.00 0.00 0.00 0.00 0.00 0.00 0.00 0.00 0.00 0.00 0.00 0.01 0.03 0.04 0.03 0.01 0.01 0.01 0.00 0.01 0.01 0.03 0.04 0.07 0.10 0.14 0.17 0.20 0.22 0.27 0.37 0.49 0.53 0.68 0.82 0.85 0.81 0.65 0.46 0.47 0.62 0.69 0.60 0.53 0.64 0.42 0.38
0.00 0.00 0.00 0.00 0.00 0.00 0.00 0.00 0.00 0.00 0.00 0.00 0.00 0.01 0.01 0.02 0.02 0.03 0.03 0.02 0.02 0.03 0.05 0.09 0.12 0.17 0.28 0.36 0.37 0.41 0.41 0.48 0.55 0.59 0.56 0.61 0.77 0.82 0.82 0.58 0.36 0.49 0.74 0.82 0.75 0.71 0.70 0.59 0.59
0.00 0.00 0.00 0.00 0.00 0.00 0.00 0.00 0.00 0.00 0.00 0.00 0.01 0.01 0.02 0.02 0.03 0.04 0.04 0.05 0.05 0.05 0.11 0.22 0.31 0.38 0.51 0.59 0.63 0.63 0.59 0.55 0.53 0.50 0.42 0.40 0.43 0.49 0.55 0.34 0.28 0.47 0.64 0.68 0.67 0.70 0.77 0.66 0.69
0.00 0.00 0.00 0.00 0.00 0.00 0.00 0.00 0.01 0.02 0.02 0.02 0.02 0.03 0.03 0.03 0.05 0.07 0.11 0.12 0.10 0.13 0.22 0.36 0.46 0.50 0.45 0.38 0.39 0.40 0.40 0.38 0.35 0.29 0.23 0.20 0.20 0.24 0.36 0.30 0.27 0.45 0.54 0.51 0.68 0.75 0.82 0.69 0.64
0.00 0.00 0.00 0.00 0.00 0.00 0.00 0.00 0.02 0.03 0.05 0.04 0.03 0.04 0.05 0.08 0.12 0.19 0.28 0.24 0.19 0.23 0.27 0.30 0.33 0.29 0.21 0.19 0.15 0.16 0.17 0.22 0.24 0.23 0.19 0.15 0.14 0.19 0.33 0.32 0.32 0.39 0.43 0.41 0.56 0.67 0.68 0.51 0.71
0.00 0.00 0.00 0.00 0.00 0.00 0.00 0.00 0.00 0.01 0.01 0.02 0.02 0.04 0.10 0.21 0.36 0.54 0.71 0.53 0.36 0.40 0.43 0.36 0.29 0.25 0.16 0.10 0.07 0.06 0.07 0.10 0.11 0.12 0.13 0.11 0.14 0.18 0.24 0.25 0.26 0.30 0.34 0.34 0.39 0.48 0.52 0.44 0.70
0.00 0.00 0.00 0.00 0.00 0.00 0.00 0.00 0.00 0.00 0.01 0.02 0.04 0.07 0.16 0.33 0.59 0.83 0.99 0.89 0.76 0.86 0.78 0.56 0.37 0.29 0.15 0.08 0.04 0.04 0.04 0.04 0.05 0.05 0.06 0.07 0.11 0.15 0.16 0.17 0.21 0.26 0.28 0.31 0.36 0.47 0.58 0.49 0.54
0.00 0.00 0.00 0.00 0.00 0.00 0.00 0.00 0.00 0.01 0.02 0.04 0.07 0.13 0.20 0.25 0.40 0.59 0.74 0.80 0.86 0.90 0.75 0.53 0.34 0.24 0.16 0.11 0.09 0.09 0.06 0.04 0.03 0.04 0.05 0.06 0.08 0.08 0.09 0.12 0.23 0.30 0.35 0.40 0.39 0.44 0.52 0.54 0.47
0.00 0.00 0.00 0.00 0.00 0.00 0.00 0.00 0.01 0.02 0.05 0.10 0.13 0.18 0.20 0.17 0.24 0.33 0.38 0.44 0.51 0.52 0.45 0.33 0.31 0.29 0.23 0.19 0.18 0.14 0.07 0.03 0.02 0.03 0.05 0.06 0.05 0.05 0.05 0.06 0.11 0.23 0.31 0.36 0.37 0.39 0.44 0.50 0.48
0.00 0.00 0.00 0.00 0.01 0.02 0.03 0.03 0.03 0.04 0.06 0.09 0.11 0.13 0.14 0.17 0.23 0.28 0.26 0.23 0.21 0.19 0.18 0.16 0.20 0.24 0.21 0.20 0.20 0.17 0.13 0.09 0.06 0.06 0.08 0.07 0.06 0.05 0.04 0.05 0.08 0.13 0.15 0.19 0.26 0.30 0.34 0.38 0.41
0.00 0.00 0.00 0.01 0.05 0.09 0.12 0.06 0.05 0.03 0.03 0.04 0.05 0.07 0.11 0.14 0.17 0.21 0.21 0.17 0.14 0.12 0.09 0.07 0.08 0.14 0.16 0.16 0.18 0.17 0.16 0.14 0.12 0.11 0.10 0.10 0.08 0.08 0.08 0.09 0.13 0.18 0.19 0.19 0.22 0.27 0.30 0.35 0.39
0.00 0.00 0.00 0.00 0.01 0.01 0.02 0.03 0.05 0.04 0.03 0.02 0.02 0.03 0.06 0.07 0.08 0.11 0.11 0.10 0.09 0.07 0.06 0.05 0.04 0.05 0.07 0.09 0.13 0.14 0.15 0.14 0.14 0.21 0.19 0.15 0.11 0.10 0.13 0.18 0.19 0.18 0.21 0.24 0.31 0.36 0.38 0.40 0.41
0.00 0.00 0.00 0.00 0.00 0.00 0.01 0.03 0.05 0.06 0.05 0.02 0.01 0.01 0.03 0.04 0.05 0.05 0.05 0.05 0.04 0.04 0.04 0.04 0.03 0.04 0.04 0.05 0.07 0.09 0.11 0.14 0.19 0.24 0.21 0.16 0.14 0.09 0.09 0.14 0.22 0.22 0.23 0.28 0.36 0.40 0.41 0.44 0.49
0.00 0.00 0.00 0.00 0.00 0.00 0.00 0.07 0.14 0.17 0.17 0.06 0.01 0.01 0.01 0.02 0.02 0.02 0.03 0.03 0.02 0.02 0.02 0.02 0.02 0.03 0.03 0.03 0.03 0.05 0.10 0.17 0.24 0.28 0.24 0.20 0.16 0.13 0.12 0.14 0.19 0.20 0.21 0.27 0.38 0.46 0.49 0.55 0.61
0.00 0.00 0.00 0.00 0.00 0.00 0.01 0.07 0.09 0.13 0.09 0.04 0.01 0.01 0.01 0.01 0.01 0.01 0.01 0.01 0.01 0.01 0.01 0.02 0.02 0.02 0.02 0.02 0.03 0.07 0.16 0.20 0.27 0.42 0.40 0.24 0.17 0.15 0.13 0.13 0.13 0.11 0.11 0.16 0.29 0.49 0.58 0.65 0.66
0.00 0.00 0.00 0.00 0.00 0.00 0.02 0.08 0.05 0.06 0.05 0.03 0.02 0.01 0.00 0.01 0.00 0.00 0.00 0.00 0.01 0.01 0.01 0.01 0.01 0.02 0.02 0.02 0.02 0.05 0.14 0.19 0.23 0.30 0.33 0.25 0.19 0.16 0.14 0.12 0.11 0.09 0.10 0.15 0.26 0.41 0.54 0.65 0.73

GEFSSGP_prec_meanprecacc_036.txt.gz
Total_Precipitation_Accumulation
0.00 0.01 0.03 0.07 0.11 0.12 0.12 0.02 0.01 0.00 0.00 0.00 0.00 0.00 0.00 0.00 0.01 0.04 0.00 0.00 0.00 0.00 0.00 0.00 0.00 0.00 0.00 0.00 0.00 0.00 0.00 0.00 0.00 0.00 0.00 0.00 0.00 0.00 0.00 0.00 0.00 0.00 0.00 0.00 0.00 0.00 0.00 0.00 0.00
0.00 0.00 0.03 0.06 0.11 0.29 0.25 0.04 0.01 0.00 0.00 0.00 0.00 0.00 0.00 0.00 0.00 0.00 0.00 0.00 0.00 0.00 0.00 0.00 0.00 0.00 0.00 0.00 0.00 0.00 0.00 0.00 0.00 0.00 0.00 0.00 0.00 0.00 0.00 0.00 0.00 0.00 0.00 0.00 0.00 0.00 0.00 0.00 0.00
0.00 0.00 0.02 0.03 0.09 0.27 0.25 0.04 0.01 0.00 0.00 0.00 0.00 0.00 0.00 0.00 0.00 0.00 0.00 0.00 0.00 0.00 0.00 0.00 0.00 0.00 0.00 0.00 0.00 0.00 0.00 0.00 0.00 0.00 0.00 0.00 0.00 0.00 0.00 0.00 0.00 0.00 0.00 0.00 0.00 0.00 0.00 0.00 0.00
0.00 0.00 0.00 0.01 0.07 0.14 0.11 0.07 0.04 0.01 0.00 0.00 0.00 0.00 0.00 0.00 0.00 0.00 0.00 0.00 0.00 0.00 0.00 0.00 0.00 0.00 0.00 0.00 0.00 0.00 0.00 0.00 0.00 0.00 0.00 0.00 0.01 0.01 0.00 0.00 0.00 0.00 0.00 0.00 0.00 0.00 0.00 0.00 0.00
0.00 0.00 0.00 0.01 0.05 0.11 0.13 0.11 0.06 0.03 0.01 0.00 0.00 0.00 0.00 0.00 0.00 0.00 0.00 0.00 0.00 0.00 0.00 0.00 0.00 0.00 0.00 0.00 0.00 0.00 0.00 0.00 0.00 0.00 0.00 0.00 0.01 0.01 0.01 0.00 0.00 0.00 0.00 0.00 0.00 0.00 0.00 0.00 0.00
0.00 0.00 0.00 0.01 0.04 0.09 0.13 0.11 0.08 0.05 0.01 0.01 0.00 0.00 0.00 0.00 0.00 0.00 0.00 0.00 0.00 0.00 0.00 0.00 0.00 0.00 0.00 0.00 0.00 0.00 0.00 0.00 0.00 0.00 0.00 0.00 0.00 0.00 0.00 0.00 0.00 0.01 0.02 0.01 0.00 0.00 0.00 0.00 0.00
0.00 0.00 0.00 0.01 0.04 0.07 0.08 0.09 0.08 0.05 0.01 0.01 0.00 0.00 0.02 0.01 0.00 0.00 0.00 0.00 0.00 0.00 0.00 0.00 0.00 0.00 0.01 0.01 0.01 0.01 0.00 0.00 0.00 0.00 0.00 0.00 0.00 0.00 0.00 0.00 0.00 0.01 0.02 0.03 0.02 0.01 0.00 0.01 0.01
0.00 0.00 0.00 0.00 0.02 0.04 0.03 0.04 0.06 0.05 0.03 0.01 0.00 0.01 0.01 0.00 0.00 0.00 0.00 0.00 0.00 0.00 0.00 0.00 0.00 0.00 0.00 0.00 0.01 0.01 0.01 0.01 0.01 0.00 0.00 0.00 0.00 0.01 0.01 0.02 0.02 0.02 0.02 0.03 0.03 0.03 0.03 0.05 0.06
0.00 0.00 0.00 0.00 0.00 0.01 0.01 0.02 0.03 0.03 0.03 0.02 0.01 0.02 0.02 0.00 0.00 0.00 0.00 0.00 0.00 0.00 0.00 0.00 0.00 0.00 0.00 0.00 0.00 0.01 0.01 0.01 0.01 0.01 0.01 0.01 0.01 0.06 0.11 0.15 0.19 0.15 0.11 0.08 0.07 0.08 0.10 0.11 0.06
0.00 0.00 0.00 0.00 0.00 0.00 0.00 0.00 0.01 0.01 0.02 0.03 0.06 0.07 0.05 0.01 0.00 0.00 0.00 0.00 0.00 0.00 0.00 0.00 0.00 0.00 0.00 0.00 0.00 0.00 0.00 0.01 0.01 0.03 0.09 0.11 0.15 0.14 0.08 0.23 0.27 0.24 0.24 0.18 0.17 0.30 0.24 0.12 0.07
0.00 0.00 0.00 0.00 0.00 0.00 0.00 0.00 0.00 0.00 0.01 0.07 0.22 0.23 0.10 0.03 0.01 0.00 0.00 0.00 0.00 0.01 0.01 0.00 0.00 0.01 0.00 0.00 0.00 0.00 0.01 0.06 0.06 0.07 0.14 0.25 0.26 0.16 0.08 0.10 0.22 0.31 0.35 0.27 0.35 0.44 0.23 0.18 0.23
0.00 0.00 0.00 0.00 0.00 0.00 0.00 0.00 0.00 0.00 0.01 0.11 0.34 0.31 0.09 0.03 0.01 0.01 0.00 0.00 0.01 0.02 0.02 0.01 0.01 0.01 0.01 0.01 0.01 0.01 0.02 0.05 0.07 0.12 0.16 0.29 0.28 0.21 0.16 0.16 0.16 0.24 0.28 0.39 0.37 0.33 0.33 0.34 0.28
0.00 0.00 0.00 0.00 0.00 0.00 0.00 0.00 0.00 0.00 0.00 0.01 0.10 0.17 0.09 0.03 0.02 0.01 0.01 0.01 0.02 0.04 0.04 0.05 0.05 0.03 0.02 0.03 0.03 0.03 0.03 0.04 0.06 0.15 0.20 0.28 0.35 0.30 0.32 0.31 0.25 0.18 0.27 0.40 0.47 0.47 0.48 0.43 0.37
0.00 0.00 0.00 0.00 0.00 0.00 0.00 0.00 0.00 0.00 0.00 0.00 0.03 0.08 0.09 0.06 0.08 0.08 0.05 0.04 0.05 0.08 0.11 0.15 0.16 0.12 0.09 0.07 0.09 0.11 0.12 0.14 0.17 0.25 0.33 0.45 0.54 0.56 0.58 0.50 0.43 0.34 0.38 0.43 0.55 0.56 0.61 0.50 0.49
0.00 0.00 0.00 0.00 0.00 0.00 0.00 0.00 0.00 0.00 0.00 0.00 0.00 0.02 0.04 0.07 0.10 0.14 0.14 0.12 0.14 0.21 0.25 0.29 0.35 0.36 0.30 0.28 0.26 0.27 0.27 0.32 0.44 0.54 0.58 0.72 0.87 0.91 0.86 0.69 0.49 0.49 0.65 0.73 0.63 0.56 0.68 0.46 0.42
0.00 0.00 0.00 0.00 0.00 0.00 0.00 0.00 0.00 0.00 0.00 0.00 0.01 0.01 0.02 0.04 0.08 0.11 0.15 0.25 0.39 0.51 0.55 0.60 0.66 0.67 0.70 0.70 0.60 0.56 0.53 0.59 0.66 0.66 0.60 0.65 0.80 0.84 0.84 0.60 0.37 0.50 0.75 0.83 0.76 0.71 0.71 0.60 0.61
0.00 0.00 0.00 0.00 0.00 0.00 0.00 0.00 0.00 0.00 0.00 0.00 0.01 0.03 0.05 0.06 0.11 0.17 0.30 0.53 0.80 1.02 1.23 1.34 1.33 1.21 1.22 1.18 1.04 0.90 0.79 0.73 0.66 0.59 0.47 0.43 0.45 0.49 0.55 0.34 0.28 0.47 0.64 0.68 0.67 0.70 0.77 0.66 0.69
0.00 0.00 0.00 0.00 0.00 0.00 0.00 0.00 0.01 0.02 0.02 0.03 0.04 0.05 0.07 0.11 0.20 0.33 0.54 0.82 1.12 1.44 1.86 2.17 2.12 1.88 1.57 1.21 0.96 0.82 0.69 0.58 0.49 0.40 0.32 0.24 0.21 0.25 0.36 0.30 0.27 0.45 0.54 0.51 0.68 0.75 0.82 0.69 0.64
0.00 0.00 0.00 0.00 0.00 0.00 0.00 0.00 0.02 0.03 0.05 0.05 0.04 0.06 0.10 0.18 0.33 0.51 0.80 1.09 1.41 1.79 2.24 2.43 2.34 1.87 1.39 1.10 0.87 0.68 0.49 0.40 0.36 0.31 0.25 0.18 0.14 0.19 0.33 0.32 0.32 0.39 0.43 0.41 0.56 0.67 0.68 0.51 0.71
0.00 0.00 0.00 0.00 0.00 0.00 0.00 0.00 0.01 0.02 0.02 0.03 0.03 0.07 0.15 0.30 0.53 0.88 1.30 1.53 1.52 1.79 2.28 2.33 1.87 1.40 1.05 0.82 0.64 0.48 0.37 0.33 0.31 0.24 0.19 0.14 0.15 0.19 0.24 0.25 0.26 0.30 0.34 0.34 0.39 0.48 0.52 0.44 0.70
0.00 0.00 0.00 0.00 0.00 0.00 0.00 0.00 0.01 0.02 0.03 0.04 0.06 0.12 0.22 0.43 0.74 1.07 1.41 1.52 1.42 1.64 1.68 1.41 1.12 0.86 0.66 0.54 0.45 0.41 0.32 0.28 0.22 0.16 0.13 0.13 0.15 0.17 0.17 0.17 0.21 0.26 0.28 0.31 0.36 0.47 0.58 0.49 0.54
0.00 0.00 0.00 0.00 0.00 0.00 0.00 0.00 0.02 0.04 0.06 0.09 0.12 0.19 0.26 0.32 0.47 0.70 0.90 1.04 1.12 1.13 0.98 0.80 0.69 0.57 0.50 0.48 0.37 0.38 0.31 0.23 0.16 0.11 0.11 0.13 0.13 0.11 0.10 0.13 0.23 0.30 0.35 0.40 0.39 0.44 0.52 0.54 0.47
0.00 0.00 0.00 0.00 0.00 0.00 0.00 0.01 0.03 0.06 0.12 0.21 0.27 0.29 0.26 0.21 0.27 0.39 0.44 0.52 0.59 0.61 0.56 0.46 0.52 0.57 0.51 0.46 0.38 0.30 0.22 0.15 0.11 0.12 0.15 0.16 0.12 0.10 0.09 0.08 0.13 0.24 0.32 0.36 0.37 0.39 0.44 0.50 0.49
0.00 0.00 0.00 0.00 0.01 0.04 0.06 0.07 0.10 0.15 0.22 0.34 0.34 0.27 0.21 0.20 0.25 0.30 0.28 0.25 0.25 0.26 0.25 0.24 0.31 0.38 0.37 0.36 0.34 0.30 0.25 0.21 0.18 0.17 0.17 0.16 0.15 0.13 0.11 0.09 0.11 0.14 0.17 0.20 0.26 0.30 0.34 0.38 0.41
0.00 0.00 0.00 0.02 0.06 0.12 0.15 0.11 0.18 0.28 0.38 0.46 0.34 0.21 0.16 0.16 0.18 0.21 0.21 0.18 0.15 0.14 0.13 0.12 0.13 0.21 0.25 0.26 0.29 0.28 0.28 0.26 0.24 0.20 0.19 0.18 0.17 0.18 0.18 0.16 0.18 0.21 0.22 0.21 0.23 0.27 0.31 0.35 0.39
0.01 0.01 0.01 0.01 0.01 0.02 0.05 0.11 0.25 0.32 0.39 0.32 0.17 0.09 0.08 0.08 0.09 0.11 0.11 0.10 0.09 0.08 0.07 0.06 0.05 0.07 0.09 0.12 0.17 0.18 0.21 0.22 0.23 0.29 0.27 0.22 0.20 0.22 0.26 0.29 0.29 0.26 0.27 0.28 0.33 0.37 0.39 0.40 0.41
0.02 0.01 0.01 0.00 0.00 0.01 0.05 0.15 0.20 0.24 0.28 0.18 0.09 0.04 0.04 0.04 0.05 0.05 0.05 0.05 0.04 0.04 0.04 0.04 0.04 0.04 0.05 0.05 0.07 0.09 0.13 0.17 0.23 0.29 0.28 0.23 0.22 0.20 0.21 0.26 0.35 0.33 0.31 0.34 0.40 0.42 0.43 0.45 0.49
0.02 0.02 0.01 0.01 0.01 0.01 0.03 0.17 0.28 0.32 0.29 0.16 0.07 0.03 0.02 0.02 0.02 0.02 0.03 0.03 0.02 0.02 0.02 0.02 0.02 0.03 0.03 0.03 0.03 0.05 0.10 0.18 0.25 0.29 0.26 0.22 0.20 0.19 0.18 0.21 0.27 0.28 0.28 0.34 0.44 0.49 0.51 0.56 0.61
0.04 0.03 0.03 0.02 0.02 0.02 0.04 0.14 0.18 0.23 0.19 0.11 0.05 0.03 0.01 0.01 0.01 0.01 0.01 0.01 0.01 0.01 0.01 0.02 0.02 0.02 0.02 0.02 0.03 0.07 0.16 0.20 0.27 0.42 0.40 0.24 0.18 0.16 0.15 0.15 0.16 0.16 0.17 0.22 0.35 0.53 0.61 0.67 0.67
0.04 0.04 0.03 0.03 0.02 0.02 0.05 0.13 0.09 0.10 0.08 0.06 0.04 0.01 0.01 0.01 0.00 0.00 0.00 0.00 0.01 0.01 0.01 0.01 0.01 0.02 0.02 0.02 0.02 0.05 0.14 0.19 0.23 0.30 0.33 0.25 0.19 0.16 0.14 0.12 0.11 0.10 0.11 0.18 0.31 0.45 0.57 0.67 0.75

GEFSSGP_prec_meanprecacc_042.txt.gz
Total_Precipitation_Accumulation
0.00 0.01 0.04 0.09 0.12 0.14 0.13 0.03 0.01 0.00 0.00 0.00 0.00 0.00 0.00 0.00 0.01 0.04 0.00 0.00 0.00 0.00 0.00 0.00 0.00 0.00 0.00 0.00 0.00 0.00 0.00 0.00 0.00 0.01 0.00 0.00 0.00 0.00 0.00 0.00 0.00 0.00 0.00 0.00 0.00 0.00 0.00 0.00 0.00
0.00 0.01 0.04 0.07 0.12 0.31 0.26 0.04 0.01 0.00 0.00 0.00 0.00 0.00 0.00 0.00 0.00 0.00 0.00 0.00 0.00 0.00 0.00 0.00 0.00 0.00 0.00 0.00 0.00 0.00 0.00 0.00 0.00 0.00 0.00 0.00 0.00 0.00 0.00 0.00 0.00 0.00 0.00 0.00 0.00 0.00 0.00 0.00 0.00
0.00 0.00 0.02 0.04 0.10 0.28 0.26 0.04 0.01 0.00 0.00 0.00 0.00 0.00 0.00 0.00 0.00 0.00 0.00 0.00 0.00 0.00 0.00 0.00 0.00 0.00 0.01 0.00 0.00 0.00 0.00 0.00 0.00 0.00 0.00 0.00 0.00 0.01 0.00 0.00 0.00 0.00 0.00 0.00 0.00 0.00 0.00 0.00 0.00
0.00 0.00 0.00 0.01 0.07 0.15 0.12 0.07 0.04 0.02 0.01 0.00 0.00 0.00 0.00 0.00 0.00 0.00 0.00 0.00 0.00 0.00 0.00 0.00 0.00 0.00 0.01 0.00 0.00 0.00 0.00 0.00 0.00 0.00 0.00 0.00 0.01 0.01 0.00 0.00 0.00 0.00 0.00 0.00 0.00 0.00 0.00 0.00 0.00
0.00 0.00 0.00 0.01 0.05 0.11 0.13 0.12 0.06 0.03 0.01 0.01 0.00 0.00 0.00 0.00 0.00 0.00 0.00 0.00 0.00 0.00 0.00 0.00 0.00 0.00 0.00 0.00 0.00 0.00 0.00 0.00 0.01 0.00 0.00 0.00 0.01 0.01 0.01 0.00 0.00 0.00 0.00 0.00 0.00 0.00 0.00 0.00 0.00
0.00 0.00 0.00 0.01 0.04 0.09 0.13 0.11 0.08 0.06 0.02 0.01 0.00 0.00 0.00 0.00 0.00 0.00 0.00 0.00 0.00 0.00 0.00 0.00 0.00 0.00 0.01 0.01 0.01 0.00 0.00 0.00 0.00 0.00 0.00 0.00 0.00 0.00 0.00 0.00 0.00 0.01 0.02 0.01 0.00 0.00 0.00 0.00 0.00
0.00 0.00 0.00 0.01 0.04 0.07 0.08 0.10 0.08 0.05 0.02 0.01 0.00 0.00 0.02 0.01 0.00 0.00 0.00 0.00 0.00 0.00 0.00 0.00 0.00 0.00 0.01 0.01 0.01 0.01 0.01 0.00 0.00 0.00 0.00 0.00 0.00 0.00 0.00 0.00 0.00 0.01 0.02 0.03 0.02 0.01 0.00 0.01 0.01
0.00 0.00 0.00 0.00 0.02 0.04 0.03 0.04 0.06 0.05 0.03 0.01 0.00 0.01 0.01 0.00 0.00 0.00 0.00 0.00 0.00 0.00 0.00 0.00 0.00 0.00 0.00 0.00 0.01 0.01 0.01 0.01 0.01 0.00 0.00 0.00 0.00 0.01 0.01 0.02 0.02 0.02 0.02 0.03 0.04 0.03 0.03 0.05 0.06
0.00 0.00 0.00 0.00 0.00 0.01 0.01 0.02 0.03 0.03 0.04 0.02 0.02 0.02 0.02 0.00 0.00 0.00 0.00 0.00 0.00 0.00 0.00 0.00 0.00 0.00 0.00 0.00 0.00 0.01 0.01 0.01 0.01 0.01 0.01 0.01 0.01 0.06 0.11 0.15 0.20 0.16 0.13 0.10 0.08 0.09 0.11 0.11 0.07
0.00 0.00 0.00 0.00 0.00 0.00 0.00 0.00 0.01 0.01 0.02 0.03 0.06 0.07 0.05 0.01 0.00 0.00 0.00 0.00 0.00 0.00 0.01 0.01 0.01 0.00 0.00 0.00 0.01 0.01 0.01 0.02 0.01 0.03 0.09 0.12 0.15 0.14 0.08 0.23 0.29 0.29 0.32 0.26 0.25 0.38 0.28 0.15 0.07
0.00 0.00 0.00 0.00 0.00 0.00 0.00 0.00 0.00 0.00 0.01 0.07 0.22 0.23 0.10 0.03 0.01 0.00 0.00 0.00 0.00 0.01 0.01 0.01 0.01 0.01 0.01 0.01 0.01 0.01 0.02 0.06 0.07 0.08 0.15 0.25 0.26 0.17 0.08 0.11 0.23 0.36 0.46 0.36 0.44 0.57 0.31 0.24 0.28
0.00 0.00 0.00 0.00 0.00 0.00 0.00 0.00 0.00 0.00 0.01 0.11 0.34 0.31 0.09 0.03 0.01 0.01 0.00 0.00 0.02 0.03 0.04 0.05 0.04 0.03 0.03 0.03 0.02 0.02 0.04 0.07 0.08 0.14 0.18 0.31 0.31 0.24 0.19 0.18 0.18 0.28 0.37 0.51 0.49 0.44 0.44 0.46 0.40
0.00 0.00 0.00 0.00 0.00 0.00 0.00 0.00 0.00 0.00 0.00 0.01 0.10 0.17 0.09 0.03 0.02 0.01 0.01 0.01 0.04 0.08 0.13 0.18 0.17 0.13 0.11 0.09 0.08 0.06 0.08 0.10 0.11 0.20 0.26 0.35 0.44 0.39 0.41 0.38 0.32 0.26 0.36 0.50 0.60 0.60 0.61 0.57 0.53
0.00 0.00 0.00 0.00 0.00 0.00 0.00 0.00 0.00 0.00 0.00 0.00 0.03 0.08 0.09 0.07 0.08 0.09 0.06 0.06 0.09 0.17 0.28 0.39 0.44 0.45 0.38 0.31 0.27 0.24 0.23 0.25 0.28 0.38 0.47 0.58 0.66 0.72 0.77 0.67 0.56 0.44 0.47 0.52 0.65 0.65 0.71 0.60 0.60
0.00 0.00 0.00 0.00 0.00 0.00 0.00 0.00 0.00 0.00 0.00 0.00 0.01 0.02 0.05 0.08 0.12 0.16 0.17 0.17 0.24 0.38 0.49 0.59 0.74 0.88 0.84 0.74 0.65 0.57 0.54 0.56 0.65 0.77 0.81 0.94 1.06 1.11 1.07 0.86 0.62 0.58 0.73 0.79 0.68 0.61 0.73 0.50 0.45
0.00 0.00 0.00 0.00 0.00 0.00 0.00 0.00 0.00 0.00 0.00 0.00 0.01 0.02 0.04 0.08 0.11 0.15 0.21 0.33 0.55 0.74 0.83 0.97 1.12 1.19 1.25 1.19 1.09 1.00 0.96 0.99 0.99 0.97 0.91 0.93 1.06 1.07 1.05 0.75 0.46 0.55 0.79 0.86 0.78 0.73 0.73 0.61 0.62
0.00 0.00 0.00 0.00 0.00 0.00 0.00 0.00 0.00 0.00 0.01 0.01 0.02 0.05 0.08 0.12 0.18 0.25 0.39 0.67 1.00 1.27 1.53 1.74 1.86 1.76 1.81 1.80 1.69 1.57 1.43 1.25 1.08 1.00 0.85 0.77 0.74 0.72 0.73 0.46 0.35 0.51 0.66 0.69 0.68 0.71 0.77 0.67 0.69
0.00 0.00 0.00 0.00 0.00 0.00 0.00 0.00 0.01 0.02 0.02 0.04 0.05 0.08 0.11 0.17 0.29 0.44 0.68 1.01 1.35 1.69 2.15 2.48 2.51 2.31 2.08 1.86 1.59 1.50 1.39 1.27 1.11 0.94 0.74 0.63 0.54 0.49 0.54 0.41 0.32 0.47 0.56 0.52 0.68 0.75 0.82 0.69 0.64
0.00 0.00 0.00 0.00 0.00 0.00 0.00 0.01 0.02 0.04 0.05 0.06 0.07 0.11 0.16 0.25 0.42 0.64 0.96 1.26 1.58 1.95 2.42 2.61 2.56 2.12 1.67 1.49 1.30 1.18 1.03 0.93 0.89 0.81 0.70 0.60 0.49 0.47 0.53 0.44 0.38 0.41 0.44 0.41 0.56 0.67 0.68 0.51 0.71
0.00 0.00 0.00 0.00 0.00 0.00 0.00 0.01 0.01 0.02 0.03 0.04 0.06 0.11 0.21 0.38 0.63 1.01 1.44 1.65 1.62 1.87 2.35 2.41 1.96 1.50 1.22 1.08 0.96 0.83 0.79 0.73 0.66 0.57 0.48 0.43 0.41 0.41 0.43 0.37 0.30 0.31 0.35 0.35 0.39 0.48 0.52 0.44 0.70
0.00 0.00 0.00 0.00 0.00 0.00 0.00 0.00 0.01 0.02 0.03 0.05 0.09 0.15 0.27 0.50 0.82 1.15 1.49 1.58 1.48 1.68 1.73 1.44 1.15 0.89 0.70 0.60 0.55 0.56 0.53 0.50 0.42 0.35 0.31 0.32 0.35 0.33 0.30 0.26 0.25 0.28 0.29 0.31 0.36 0.47 0.58 0.49 0.54
0.00 0.00 0.00 0.00 0.00 0.00 0.00 0.01 0.02 0.04 0.07 0.10 0.15 0.23 0.30 0.37 0.52 0.75 0.94 1.06 1.14 1.15 1.00 0.81 0.70 0.58 0.53 0.52 0.45 0.51 0.45 0.39 0.34 0.28 0.27 0.29 0.30 0.27 0.24 0.24 0.31 0.34 0.37 0.41 0.40 0.44 0.52 0.54 0.47
0.00 0.00 0.00 0.00 0.00 0.00 0.01 0.02 0.04 0.07 0.14 0.23 0.30 0.32 0.29 0.25 0.29 0.41 0.46 0.53 0.60 0.61 0.56 0.46 0.53 0.59 0.54 0.50 0.44 0.40 0.34 0.29 0.26 0.28 0.30 0.33 0.33 0.30 0.27 0.23 0.25 0.31 0.37 0.39 0.39 0.39 0.45 0.50 0.49
0.00 0.00 0.00 0.00 0.01 0.04 0.07 0.08 0.10 0.16 0.23 0.36 0.36 0.29 0.23 0.21 0.26 0.30 0.28 0.25 0.25 0.26 0.25 0.25 0.32 0.39 0.39 0.39 0.38 0.35 0.32 0.30 0.27 0.27 0.28 0.29 0.31 0.32 0.30 0.27 0.27 0.27 0.27 0.28 0.31 0.33 0.35 0.38 0.41
0.01 0.01 0.01 0.02 0.06 0.12 0.15 0.12 0.19 0.29 0.39 0.47 0.35 0.22 0.17 0.16 0.18 0.21 0.21 0.18 0.15 0.14 0.13 0.12 0.14 0.22 0.25 0.27 0.31 0.30 0.30 0.29 0.28 0.25 0.24 0.25 0.25 0.28 0.30 0.30 0.33 0.36 0.35 0.32 0.32 0.34 0.34 0.38 0.40
0.03 0.02 0.02 0.02 0.02 0.03 0.06 0.13 0.27 0.33 0.40 0.33 0.18 0.10 0.08 0.09 0.09 0.11 0.11 0.10 0.09 0.08 0.07 0.06 0.06 0.07 0.09 0.12 0.17 0.18 0.22 0.23 0.24 0.31 0.29 0.25 0.24 0.27 0.32 0.36 0.37 0.37 0.41 0.42 0.45 0.47 0.47 0.45 0.44
0.03 0.02 0.02 0.02 0.02 0.03 0.07 0.16 0.22 0.25 0.29 0.19 0.10 0.05 0.04 0.05 0.05 0.05 0.05 0.05 0.04 0.04 0.04 0.04 0.04 0.04 0.05 0.05 0.07 0.10 0.13 0.17 0.24 0.30 0.28 0.24 0.24 0.22 0.23 0.30 0.40 0.40 0.40 0.45 0.51 0.52 0.53 0.54 0.55
0.03 0.03 0.02 0.02 0.03 0.02 0.06 0.20 0.31 0.33 0.30 0.17 0.08 0.04 0.03 0.03 0.03 0.03 0.03 0.03 0.03 0.02 0.02 0.02 0.03 0.03 0.03 0.03 0.03 0.05 0.10 0.18 0.25 0.29 0.26 0.22 0.21 0.19 0.19 0.23 0.30 0.33 0.35 0.42 0.52 0.57 0.60 0.65 0.68
0.04 0.04 0.03 0.04 0.05 0.05 0.06 0.17 0.21 0.24 0.20 0.11 0.06 0.04 0.01 0.01 0.01 0.01 0.01 0.01 0.01 0.01 0.01 0.02 0.02 0.02 0.02 0.02 0.03 0.07 0.16 0.20 0.27 0.42 0.40 0.24 0.18 0.16 0.15 0.16 0.17 0.18 0.21 0.28 0.42 0.61 0.69 0.75 0.74
0.05 0.05 0.04 0.05 0.05 0.04 0.06 0.13 0.10 0.11 0.09 0.06 0.04 0.02 0.01 0.01 0.00 0.00 0.00 0.01 0.01 0.01 0.01 0.01 0.01 0.02 0.02 0.02 0.02 0.05 0.14 0.19 0.23 0.30 0.33 0.25 0.19 0.16 0.14 0.12 0.11 0.11 0.13 0.21 0.36 0.52 0.65 0.76 0.83

GEFSSGP_prec_meanprecacc_048.txt.gz
Total_Precipitation_Accumulation
0.00 0.01 0.04 0.09 0.12 0.14 0.13 0.03 0.01 0.00 0.00 0.00 0.00 0.00 0.00 0.00 0.01 0.04 0.00 0.00 0.00 0.00 0.00 0.00 0.00 0.00 0.00 0.00 0.00 0.00 0.00 0.00 0.00 0.01 0.00 0.00 0.00 0.00 0.00 0.00 0.00 0.00 0.00 0.00 0.00 0.00 0.00 0.00 0.00
0.00 0.01 0.04 0.07 0.12 0.31 0.26 0.04 0.01 0.00 0.00 0.00 0.00 0.00 0.00 0.00 0.00 0.00 0.00 0.00 0.00 0.00 0.00 0.00 0.00 0.00 0.01 0.00 0.00 0.00 0.00 0.00 0.00 0.00 0.00 0.00 0.00 0.00 0.00 0.00 0.00 0.00 0.00 0.00 0.00 0.00 0.00 0.00 0.00
0.00 0.00 0.02 0.04 0.10 0.28 0.27 0.04 0.01 0.00 0.00 0.00 0.00 0.00 0.00 0.00 0.00 0.00 0.00 0.00 0.00 0.00 0.00 0.00 0.00 0.00 0.01 0.00 0.00 0.00 0.00 0.01 0.00 0.00 0.00 0.00 0.01 0.01 0.01 0.00 0.00 0.00 0.00 0.00 0.00 0.00 0.00 0.00 0.00
0.00 0.00 0.00 0.01 0.07 0.15 0.12 0.07 0.04 0.02 0.01 0.00 0.00 0.00 0.00 0.00 0.00 0.00 0.00 0.00 0.00 0.00 0.00 0.00 0.00 0.00 0.01 0.00 0.00 0.00 0.00 0.01 0.01 0.00 0.00 0.01 0.01 0.01 0.01 0.01 0.01 0.00 0.00 0.00 0.00 0.00 0.00 0.00 0.00
0.00 0.00 0.00 0.01 0.05 0.11 0.13 0.12 0.06 0.03 0.01 0.01 0.00 0.00 0.00 0.00 0.00 0.00 0.00 0.00 0.00 0.00 0.00 0.00 0.00 0.01 0.01 0.01 0.00 0.00 0.01 0.01 0.01 0.01 0.00 0.01 0.01 0.02 0.01 0.01 0.00 0.00 0.00 0.00 0.00 0.00 0.00 0.00 0.00
0.00 0.00 0.00 0.01 0.04 0.09 0.13 0.11 0.08 0.06 0.02 0.01 0.00 0.00 0.00 0.00 0.00 0.00 0.00 0.00 0.00 0.00 0.00 0.00 0.01 0.01 0.01 0.01 0.01 0.01 0.01 0.01 0.00 0.00 0.01 0.01 0.01 0.01 0.01 0.00 0.00 0.02 0.02 0.01 0.00 0.00 0.00 0.00 0.00
0.00 0.00 0.00 0.01 0.04 0.07 0.08 0.10 0.08 0.05 0.02 0.01 0.00 0.00 0.02 0.01 0.00 0.00 0.00 0.00 0.00 0.00 0.00 0.00 0.01 0.01 0.01 0.01 0.01 0.01 0.01 0.01 0.01 0.00 0.01 0.00 0.00 0.00 0.01 0.00 0.00 0.01 0.02 0.03 0.02 0.01 0.01 0.01 0.01
0.00 0.00 0.00 0.00 0.02 0.04 0.03 0.04 0.06 0.05 0.03 0.01 0.00 0.01 0.01 0.00 0.00 0.00 0.00 0.00 0.00 0.00 0.00 0.01 0.01 0.01 0.01 0.01 0.01 0.01 0.01 0.01 0.01 0.01 0.01 0.01 0.00 0.01 0.02 0.02 0.02 0.02 0.02 0.03 0.04 0.04 0.04 0.05 0.07
0.00 0.00 0.00 0.00 0.00 0.01 0.01 0.02 0.03 0.03 0.04 0.02 0.02 0.02 0.02 0.00 0.00 0.00 0.00 0.00 0.00 0.01 0.01 0.01 0.01 0.02 0.01 0.01 0.01 0.02 0.02 0.01 0.01 0.01 0.01 0.01 0.01 0.06 0.11 0.16 0.20 0.16 0.14 0.11 0.09 0.10 0.12 0.12 0.08
0.00 0.00 0.00 0.00 0.00 0.00 0.00 0.00 0.01 0.01 0.02 0.03 0.06 0.07 0.05 0.01 0.00 0.00 0.00 0.00 0.00 0.01 0.01 0.02 0.02 0.02 0.02 0.02 0.02 0.02 0.02 0.02 0.02 0.04 0.10 0.12 0.15 0.14 0.08 0.23 0.29 0.29 0.33 0.28 0.27 0.42 0.32 0.18 0.10
0.00 0.00 0.00 0.00 0.00 0.00 0.00 0.00 0.00 0.00 0.01 0.07 0.22 0.23 0.10 0.03 0.01 0.00 0.00 0.00 0.01 0.01 0.02 0.02 0.03 0.03 0.04 0.04 0.03 0.03 0.03 0.08 0.08 0.09 0.16 0.27 0.27 0.17 0.08 0.11 0.23 0.37 0.47 0.39 0.49 0.66 0.39 0.33 0.40
0.00 0.00 0.00 0.00 0.00 0.00 0.00 0.00 0.00 0.00 0.01 0.11 0.34 0.31 0.09 0.03 0.01 0.01 0.00 0.01 0.02 0.04 0.05 0.06 0.05 0.04 0.05 0.05 0.04 0.04 0.06 0.09 0.10 0.16 0.21 0.34 0.34 0.26 0.20 0.19 0.20 0.31 0.39 0.56 0.59 0.60 0.60 0.62 0.57
0.00 0.00 0.00 0.00 0.00 0.00 0.00 0.00 0.00 0.00 0.00 0.01 0.10 0.17 0.09 0.03 0.02 0.02 0.02 0.02 0.04 0.09 0.14 0.18 0.18 0.14 0.13 0.12 0.10 0.08 0.10 0.12 0.14 0.23 0.29 0.40 0.48 0.42 0.44 0.42 0.37 0.31 0.42 0.59 0.73 0.76 0.78 0.76 0.74
0.00 0.00 0.00 0.00 0.00 0.00 0.00 0.00 0.00 0.00 0.00 0.00 0.03 0.08 0.10 0.07 0.08 0.09 0.07 0.06 0.10 0.19 0.32 0.43 0.47 0.48 0.43 0.34 0.29 0.26 0.25 0.27 0.30 0.41 0.53 0.66 0.74 0.79 0.85 0.75 0.66 0.52 0.57 0.66 0.85 0.87 0.93 0.83 0.82
0.00 0.00 0.00 0.00 0.00 0.00 0.00 0.00 0.00 0.00 0.00 0.00 0.01 0.02 0.05 0.08 0.12 0.17 0.18 0.19 0.27 0.42 0.54 0.65 0.81 0.95 0.89 0.78 0.68 0.60 0.57 0.58 0.67 0.80 0.89 1.06 1.19 1.24 1.21 1.01 0.76 0.71 0.89 0.98 0.89 0.83 0.95 0.68 0.60
0.00 0.00 0.00 0.00 0.00 0.00 0.00 0.00 0.00 0.00 0.00 0.00 0.01 0.02 0.04 0.08 0.12 0.16 0.23 0.35 0.58 0.78 0.88 1.04 1.20 1.25 1.30 1.24 1.15 1.06 0.99 1.02 1.03 1.03 1.02 1.09 1.24 1.27 1.26 0.94 0.63 0.73 0.99 1.04 0.97 0.91 0.91 0.79 0.77
0.00 0.00 0.00 0.00 0.00 0.00 0.00 0.00 0.00 0.01 0.01 0.01 0.02 0.05 0.09 0.13 0.19 0.27 0.41 0.70 1.02 1.30 1.58 1.82 1.94 1.84 1.87 1.87 1.76 1.62 1.47 1.30 1.16 1.12 1.03 0.97 0.96 0.98 1.01 0.71 0.58 0.73 0.85 0.86 0.81 0.84 0.90 0.80 0.83
0.00 0.00 0.00 0.00 0.00 0.00 0.00 0.00 0.01 0.02 0.02 0.04 0.05 0.09 0.12 0.19 0.31 0.46 0.70 1.04 1.38 1.74 2.22 2.55 2.57 2.37 2.12 1.89 1.63 1.55 1.46 1.37 1.28 1.17 1.05 0.96 0.87 0.86 0.93 0.77 0.63 0.73 0.76 0.68 0.82 0.87 0.91 0.76 0.71
0.00 0.00 0.00 0.00 0.00 0.00 0.00 0.01 0.02 0.04 0.06 0.06 0.07 0.11 0.17 0.26 0.44 0.66 0.98 1.30 1.63 2.00 2.47 2.67 2.61 2.17 1.72 1.52 1.33 1.24 1.13 1.09 1.12 1.13 1.08 1.03 0.94 0.90 0.97 0.83 0.69 0.66 0.64 0.58 0.69 0.77 0.74 0.56 0.74
0.00 0.00 0.00 0.00 0.00 0.00 0.00 0.01 0.01 0.03 0.03 0.04 0.06 0.12 0.22 0.38 0.64 1.02 1.46 1.68 1.65 1.90 2.39 2.43 1.98 1.53 1.25 1.11 0.99 0.88 0.86 0.85 0.82 0.79 0.77 0.75 0.76 0.78 0.81 0.74 0.62 0.53 0.52 0.49 0.51 0.58 0.58 0.47 0.73
0.00 0.00 0.00 0.00 0.00 0.00 0.00 0.01 0.02 0.02 0.04 0.06 0.09 0.16 0.27 0.50 0.82 1.15 1.50 1.58 1.48 1.69 1.74 1.45 1.16 0.90 0.71 0.61 0.57 0.59 0.57 0.56 0.50 0.45 0.44 0.50 0.55 0.56 0.54 0.51 0.51 0.49 0.45 0.43 0.45 0.56 0.65 0.53 0.56
0.00 0.00 0.00 0.00 0.00 0.00 0.01 0.03 0.04 0.04 0.07 0.10 0.15 0.24 0.30 0.37 0.52 0.75 0.94 1.07 1.14 1.15 1.00 0.82 0.70 0.59 0.53 0.52 0.46 0.52 0.47 0.42 0.38 0.33 0.33 0.37 0.41 0.41 0.39 0.40 0.47 0.49 0.49 0.50 0.47 0.49 0.57 0.59 0.50
0.00 0.00 0.00 0.00 0.00 0.00 0.01 0.03 0.06 0.07 0.14 0.23 0.30 0.32 0.29 0.25 0.29 0.41 0.46 0.53 0.60 0.61 0.56 0.46 0.53 0.59 0.54 0.50 0.44 0.40 0.34 0.30 0.28 0.30 0.34 0.39 0.41 0.40 0.38 0.36 0.37 0.44 0.47 0.48 0.46 0.45 0.49 0.54 0.51
0.01 0.01 0.01 0.01 0.01 0.05 0.07 0.09 0.14 0.17 0.24 0.36 0.36 0.29 0.24 0.21 0.26 0.30 0.28 0.25 0.25 0.26 0.25 0.25 0.32 0.40 0.39 0.39 0.38 0.35 0.32 0.31 0.28 0.28 0.29 0.32 0.35 0.38 0.38 0.37 0.38 0.39 0.39 0.39 0.40 0.40 0.41 0.44 0.46
0.02 0.02 0.01 0.02 0.07 0.13 0.16 0.14 0.23 0.30 0.39 0.47 0.35 0.22 0.17 0.16 0.18 0.21 0.21 0.18 0.16 0.14 0.13 0.12 0.14 0.22 0.26 0.28 0.31 0.30 0.31 0.30 0.28 0.25 0.24 0.25 0.26 0.31 0.34 0.36 0.40 0.45 0.45 0.45 0.43 0.43 0.43 0.45 0.47
0.03 0.02 0.02 0.03 0.03 0.05 0.08 0.18 0.30 0.34 0.40 0.33 0.18 0.10 0.08 0.09 0.09 0.11 0.11 0.10 0.09 0.08 0.07 0.06 0.06 0.08 0.09 0.13 0.17 0.19 0.22 0.23 0.24 0.31 0.29 0.25 0.24 0.27 0.33 0.38 0.41 0.44 0.49 0.51 0.57 0.59 0.59 0.57 0.54
0.03 0.03 0.03 0.03 0.03 0.05 0.10 0.21 0.24 0.26 0.30 0.19 0.10 0.05 0.04 0.05 0.05 0.05 0.05 0.05 0.04 0.04 0.04 0.04 0.04 0.04 0.05 0.05 0.08 0.10 0.14 0.17 0.24 0.30 0.28 0.24 0.24 0.23 0.24 0.31 0.41 0.43 0.45 0.52 0.60 0.64 0.67 0.69 0.69
0.03 0.03 0.02 0.03 0.04 0.04 0.08 0.25 0.36 0.35 0.31 0.17 0.08 0.04 0.03 0.03 0.03 0.03 0.03 0.03 0.03 0.02 0.02 0.02 0.03 0.03 0.03 0.03 0.03 0.05 0.11 0.18 0.25 0.30 0.26 0.22 0.21 0.19 0.20 0.24 0.31 0.34 0.37 0.45 0.57 0.65 0.71 0.79 0.85
0.04 0.04 0.03 0.04 0.05 0.05 0.06 0.18 0.22 0.25 0.20 0.11 0.06 0.04 0.01 0.01 0.01 0.01 0.01 0.01 0.01 0.01 0.01 0.02 0.02 0.02 0.02 0.02 0.03 0.07 0.16 0.20 0.27 0.42 0.40 0.24 0.18 0.16 0.15 0.16 0.18 0.19 0.22 0.30 0.44 0.66 0.77 0.87 0.90
0.05 0.05 0.04 0.05 0.05 0.04 0.06 0.13 0.10 0.11 0.09 0.06 0.04 0.02 0.01 0.01 0.00 0.00 0.00 0.01 0.01 0.01 0.01 0.01 0.01 0.02 0.02 0.02 0.02 0.05 0.14 0.19 0.23 0.30 0.33 0.25 0.20 0.16 0.14 0.13 0.12 0.11 0.13 0.22 0.36 0.54 0.70 0.83 0.95

GEFSSGP_prec_meanprecacc_054.txt.gz
Total_Precipitation_Accumulation
0.00 0.01 0.04 0.09 0.18 0.32 0.29 0.06 0.01 0.01 0.00 0.00 0.00 0.00 0.00 0.00 0.02 0.06 0.01 0.00 0.00 0.00 0.00 0.00 0.00 0.00 0.00 0.00 0.00 0.01 0.01 0.01 0.01 0.01 0.01 0.01 0.00 0.00 0.00 0.00 0.00 0.00 0.01 0.01 0.01 0.01 0.00 0.00 0.00
0.00 0.01 0.04 0.08 0.21 0.55 0.39 0.05 0.01 0.01 0.00 0.00 0.00 0.00 0.00 0.00 0.00 0.00 0.00 0.00 0.00 0.00 0.00 0.00 0.00 0.00 0.01 0.00 0.00 0.01 0.01 0.01 0.01 0.01 0.01 0.01 0.01 0.00 0.00 0.00 0.00 0.01 0.01 0.01 0.00 0.00 0.00 0.00 0.00
0.00 0.00 0.02 0.04 0.13 0.32 0.28 0.05 0.01 0.00 0.00 0.00 0.00 0.00 0.00 0.00 0.00 0.00 0.00 0.00 0.00 0.00 0.00 0.00 0.00 0.00 0.01 0.01 0.01 0.01 0.01 0.01 0.01 0.01 0.01 0.01 0.01 0.01 0.01 0.01 0.01 0.01 0.01 0.00 0.00 0.00 0.00 0.00 0.00
0.00 0.00 0.00 0.01 0.07 0.15 0.12 0.07 0.04 0.02 0.01 0.00 0.00 0.00 0.00 0.00 0.00 0.00 0.00 0.00 0.00 0.00 0.00 0.00 0.00 0.00 0.01 0.01 0.00 0.00 0.01 0.01 0.01 0.01 0.01 0.02 0.02 0.02 0.01 0.01 0.01 0.01 0.01 0.00 0.00 0.00 0.00 0.00 0.00
0.00 0.00 0.00 0.01 0.05 0.11 0.13 0.12 0.06 0.03 0.01 0.01 0.00 0.01 0.01 0.00 0.00 0.00 0.00 0.00 0.00 0.00 0.00 0.00 0.00 0.01 0.01 0.01 0.00 0.01 0.01 0.01 0.01 0.01 0.01 0.01 0.02 0.02 0.02 0.01 0.01 0.01 0.01 0.01 0.01 0.00 0.00 0.00 0.00
0.00 0.00 0.00 0.01 0.04 0.09 0.13 0.11 0.08 0.06 0.02 0.01 0.00 0.01 0.00 0.00 0.00 0.00 0.00 0.00 0.00 0.00 0.00 0.00 0.01 0.01 0.01 0.01 0.01 0.01 0.01 0.01 0.01 0.01 0.01 0.01 0.01 0.01 0.01 0.01 0.01 0.02 0.02 0.01 0.00 0.00 0.00 0.00 0.00
0.00 0.00 0.00 0.01 0.04 0.07 0.08 0.10 0.08 0.05 0.02 0.01 0.00 0.01 0.03 0.01 0.00 0.00 0.00 0.00 0.00 0.00 0.00 0.00 0.01 0.01 0.01 0.01 0.01 0.01 0.01 0.01 0.01 0.01 0.01 0.01 0.01 0.01 0.01 0.01 0.01 0.01 0.03 0.03 0.02 0.01 0.01 0.01 0.01
0.00 0.00 0.00 0.00 0.02 0.04 0.03 0.04 0.06 0.05 0.03 0.01 0.01 0.01 0.07 0.04 0.00 0.00 0.00 0.00 0.00 0.00 0.00 0.01 0.01 0.01 0.01 0.01 0.01 0.01 0.01 0.01 0.01 0.01 0.01 0.01 0.01 0.01 0.02 0.02 0.02 0.02 0.03 0.04 0.04 0.04 0.04 0.06 0.07
0.00 0.00 0.00 0.00 0.00 0.01 0.01 0.02 0.03 0.03 0.04 0.02 0.02 0.02 0.03 0.01 0.00 0.00 0.00 0.00 0.00 0.01 0.01 0.01 0.01 0.02 0.02 0.01 0.01 0.02 0.02 0.02 0.01 0.02 0.01 0.01 0.01 0.06 0.11 0.16 0.20 0.16 0.14 0.11 0.09 0.11 0.12 0.13 0.08
0.00 0.00 0.00 0.00 0.00 0.00 0.00 0.00 0.01 0.01 0.03 0.06 0.08 0.08 0.05 0.01 0.00 0.00 0.00 0.00 0.00 0.01 0.01 0.02 0.02 0.02 0.02 0.02 0.02 0.02 0.02 0.03 0.02 0.04 0.10 0.12 0.15 0.15 0.08 0.23 0.30 0.30 0.34 0.28 0.27 0.43 0.33 0.18 0.11
0.00 0.00 0.00 0.00 0.00 0.00 0.00 0.00 0.00 0.00 0.03 0.13 0.24 0.24 0.11 0.03 0.01 0.00 0.00 0.01 0.01 0.01 0.02 0.02 0.03 0.04 0.04 0.04 0.03 0.03 0.04 0.11 0.11 0.11 0.19 0.31 0.30 0.19 0.09 0.12 0.26 0.39 0.50 0.41 0.51 0.68 0.41 0.35 0.44
0.00 0.00 0.00 0.00 0.00 0.00 0.00 0.00 0.00 0.00 0.01 0.11 0.34 0.32 0.10 0.04 0.03 0.03 0.01 0.01 0.02 0.04 0.05 0.06 0.05 0.05 0.06 0.07 0.07 0.05 0.07 0.13 0.16 0.24 0.30 0.43 0.44 0.31 0.23 0.21 0.23 0.37 0.50 0.68 0.67 0.68 0.66 0.70 0.68
0.00 0.00 0.00 0.00 0.00 0.00 0.00 0.00 0.00 0.00 0.00 0.01 0.10 0.18 0.09 0.03 0.03 0.03 0.04 0.03 0.05 0.10 0.15 0.19 0.19 0.18 0.20 0.22 0.20 0.14 0.15 0.17 0.19 0.31 0.40 0.53 0.64 0.55 0.55 0.53 0.46 0.37 0.51 0.76 0.90 0.89 0.93 0.92 0.91
0.00 0.00 0.00 0.00 0.00 0.00 0.00 0.00 0.00 0.00 0.00 0.00 0.03 0.08 0.10 0.07 0.09 0.11 0.11 0.13 0.14 0.21 0.34 0.45 0.50 0.54 0.53 0.46 0.42 0.36 0.31 0.32 0.33 0.46 0.60 0.78 0.89 0.99 1.08 0.97 0.89 0.69 0.69 0.80 1.04 1.08 1.20 1.07 1.03
0.00 0.00 0.00 0.00 0.00 0.00 0.00 0.00 0.00 0.00 0.00 0.00 0.01 0.02 0.06 0.10 0.13 0.17 0.20 0.21 0.29 0.45 0.58 0.69 0.86 1.01 0.98 0.88 0.77 0.67 0.61 0.62 0.71 0.85 0.95 1.16 1.35 1.48 1.50 1.31 1.07 0.97 1.11 1.19 1.08 1.05 1.25 0.96 0.85
0.00 0.00 0.00 0.01 0.01 0.00 0.00 0.02 0.02 0.01 0.00 0.01 0.01 0.02 0.05 0.09 0.13 0.17 0.24 0.37 0.61 0.82 0.93 1.09 1.25 1.30 1.37 1.32 1.24 1.14 1.06 1.09 1.10 1.09 1.09 1.22 1.44 1.49 1.50 1.18 0.88 1.02 1.27 1.35 1.25 1.16 1.18 1.08 1.08
0.00 0.00 0.01 0.03 0.02 0.01 0.01 0.02 0.02 0.02 0.01 0.01 0.03 0.06 0.09 0.13 0.20 0.28 0.42 0.71 1.04 1.33 1.62 1.87 1.99 1.90 1.93 1.94 1.85 1.71 1.57 1.40 1.26 1.22 1.15 1.09 1.09 1.16 1.25 0.96 0.83 1.02 1.17 1.18 1.12 1.18 1.25 1.12 1.15
0.02 0.02 0.04 0.06 0.04 0.03 0.04 0.02 0.02 0.02 0.02 0.04 0.06 0.09 0.12 0.19 0.32 0.47 0.71 1.06 1.40 1.77 2.24 2.58 2.60 2.41 2.15 1.94 1.70 1.64 1.55 1.46 1.37 1.29 1.17 1.05 0.98 1.00 1.17 1.05 0.94 1.07 1.13 1.04 1.15 1.22 1.25 1.06 1.02
0.02 0.02 0.06 0.07 0.04 0.02 0.01 0.01 0.03 0.04 0.06 0.06 0.07 0.11 0.17 0.26 0.44 0.66 0.99 1.32 1.65 2.02 2.49 2.69 2.63 2.20 1.74 1.56 1.37 1.28 1.18 1.14 1.18 1.19 1.15 1.10 1.00 0.99 1.12 1.03 0.93 0.93 0.94 0.89 1.02 1.10 1.08 0.87 1.03
0.01 0.02 0.05 0.06 0.02 0.00 0.00 0.01 0.02 0.03 0.03 0.04 0.06 0.12 0.22 0.38 0.64 1.03 1.47 1.69 1.65 1.91 2.39 2.44 1.99 1.54 1.26 1.11 1.00 0.89 0.87 0.87 0.85 0.82 0.80 0.78 0.79 0.84 0.91 0.88 0.80 0.75 0.77 0.76 0.83 0.93 0.93 0.79 1.01
0.02 0.03 0.05 0.06 0.02 0.01 0.01 0.08 0.11 0.05 0.04 0.06 0.09 0.16 0.28 0.50 0.82 1.16 1.50 1.59 1.49 1.70 1.74 1.45 1.16 0.90 0.71 0.61 0.57 0.60 0.57 0.56 0.51 0.46 0.46 0.52 0.57 0.58 0.57 0.59 0.63 0.67 0.67 0.68 0.73 0.88 0.97 0.82 0.83
0.03 0.02 0.01 0.01 0.01 0.04 0.07 0.21 0.32 0.25 0.12 0.11 0.15 0.24 0.30 0.37 0.52 0.75 0.94 1.07 1.14 1.15 1.00 0.82 0.70 0.59 0.53 0.53 0.47 0.53 0.47 0.42 0.38 0.33 0.34 0.38 0.41 0.41 0.40 0.43 0.53 0.60 0.65 0.69 0.64 0.68 0.81 0.85 0.76
0.01 0.01 0.00 0.01 0.02 0.06 0.15 0.29 0.41 0.48 0.35 0.27 0.31 0.32 0.29 0.25 0.29 0.41 0.46 0.53 0.60 0.61 0.56 0.46 0.53 0.60 0.55 0.52 0.46 0.42 0.36 0.31 0.28 0.31 0.34 0.39 0.41 0.41 0.38 0.37 0.39 0.49 0.57 0.63 0.64 0.66 0.70 0.75 0.73
0.01 0.01 0.02 0.06 0.10 0.24 0.29 0.31 0.48 0.52 0.47 0.42 0.37 0.29 0.24 0.21 0.26 0.30 0.28 0.25 0.25 0.26 0.25 0.25 0.32 0.41 0.41 0.41 0.40 0.37 0.34 0.32 0.29 0.28 0.30 0.32 0.36 0.38 0.38 0.38 0.39 0.41 0.43 0.46 0.53 0.58 0.62 0.66 0.67
0.02 0.03 0.10 0.29 0.40 0.46 0.32 0.28 0.42 0.45 0.50 0.53 0.36 0.23 0.17 0.16 0.18 0.21 0.21 0.18 0.16 0.14 0.13 0.12 0.14 0.23 0.27 0.29 0.32 0.32 0.32 0.31 0.29 0.25 0.25 0.26 0.26 0.31 0.35 0.37 0.41 0.46 0.47 0.47 0.49 0.54 0.61 0.66 0.69
0.03 0.03 0.05 0.07 0.11 0.15 0.16 0.32 0.40 0.37 0.42 0.34 0.18 0.10 0.08 0.09 0.09 0.11 0.11 0.10 0.09 0.08 0.07 0.06 0.06 0.08 0.09 0.13 0.17 0.19 0.22 0.23 0.25 0.31 0.29 0.25 0.24 0.27 0.33 0.39 0.42 0.44 0.50 0.53 0.59 0.63 0.68 0.72 0.73
0.03 0.03 0.03 0.03 0.03 0.07 0.16 0.32 0.30 0.27 0.30 0.19 0.10 0.05 0.04 0.05 0.05 0.05 0.05 0.05 0.04 0.04 0.04 0.04 0.04 0.04 0.05 0.05 0.08 0.10 0.14 0.18 0.24 0.30 0.28 0.24 0.24 0.23 0.24 0.31 0.42 0.43 0.46 0.53 0.62 0.67 0.72 0.77 0.82
0.03 0.03 0.02 0.03 0.04 0.05 0.11 0.32 0.43 0.36 0.31 0.17 0.08 0.04 0.03 0.03 0.03 0.03 0.03 0.03 0.03 0.02 0.02 0.02 0.03 0.03 0.03 0.03 0.03 0.05 0.11 0.19 0.26 0.30 0.26 0.23 0.21 0.20 0.20 0.24 0.31 0.35 0.38 0.46 0.59 0.67 0.74 0.85 0.93
0.04 0.04 0.03 0.04 0.05 0.05 0.07 0.20 0.22 0.25 0.20 0.11 0.06 0.04 0.01 0.01 0.01 0.01 0.01 0.01 0.01 0.01 0.01 0.02 0.02 0.02 0.02 0.02 0.03 0.07 0.16 0.21 0.27 0.42 0.40 0.25 0.19 0.17 0.16 0.17 0.18 0.20 0.23 0.31 0.47 0.67 0.79 0.90 0.94
0.05 0.05 0.04 0.05 0.05 0.04 0.06 0.14 0.10 0.11 0.09 0.06 0.04 0.02 0.01 0.01 0.00 0.00 0.00 0.01 0.01 0.01 0.01 0.01 0.02 0.02 0.02 0.02 0.02 0.05 0.15 0.20 0.23 0.30 0.33 0.26 0.21 0.17 0.15 0.14 0.13 0.12 0.14 0.23 0.38 0.56 0.71 0.86 0.97